Location: Monthou
(47.3483°N, 1.2974°E)
Time: 11:01:25
(UTC+00:00)

Daily predictions for brighter satellites

Satellite Brightness Start Highest point End
(mag) Time Altitude Azimuth Time Altitude Azimuth Time Altitude Azimuth
Okean O Rocket 3.6 19:08:06 10° E 19:09:59 13° ENE 19:11:53 10° NNE
Cosmos 2333 4.2 19:08:18 10° S 19:13:46 57° ESE 19:19:15 10° NE
Meteor 1-24 Rocket 3.7 19:08:45 10° N 19:14:11 69° ENE 19:19:47 10° SSE
Tiangong 0.4 19:12:39 10° SW 19:14:16 13° SSW 19:15:53 10° S
Cosmos 1538 Rocket 4.0 19:09:14 10° NNW 19:14:24 76° ENE 19:19:33 10° SSE
Cosmos 372 Rocket 4.0 19:10:02 10° S 19:15:11 64° ESE 19:20:22 10° NNE
CENTAUR R/B 4.2 19:08:16 10° NW 19:16:24 53° WSW 19:25:29 10° SSE
Cosmos 2219 Rocket 2.4 19:14:19 10° S 19:19:39 48° ESE 19:25:00 10° NE
SPOT 5 2.8 19:15:56 10° SSE 19:20:42 68° ENE 19:25:14 10° N
CZ-4B R/B 3.7 19:19:32 10° SSE 19:23:01 55° ENE 19:26:39 10° N
Cosmos 2074 Rocket 4.0 19:16:57 10° S 19:23:06 69° E 19:29:20 10° NNE
Meteor 1-31 Rocket 2.6 19:22:14 10° SSE 19:25:40 55° ENE 19:29:08 10° N
Cosmos 1937 Rocket 3.8 19:20:57 10° S 19:25:56 44° ESE 19:30:57 10° NNE
SL-24 R/B - RUBIN 2 4.5 19:27:34 10° NNW 19:31:38 36° NE 19:35:17 13° ESE
Cosmos 923 Rocket 4.3 19:28:44 10° NNW 19:33:56 52° ENE 19:38:50 11° SE
USA 234 3.3 19:29:18 10° NE 19:35:53 88° NW 19:42:28 10° WSW
COSMOS 2428 3.8 19:32:48 10° SSE 19:37:12 23° ESE 19:41:37 10° NE
IRAS Rocket 4.3 19:33:31 10° SSE 19:39:02 87° WSW 19:44:35 10° NNW
Cosmos 1953 2.6 19:35:58 10° SSW 19:39:30 62° W 19:43:05 10° N
Meteor 1-15 Rocket 4.2 19:34:08 10° S 19:39:42 87° E 19:45:18 10° NNE
PAYLOAD B 4.3 19:34:41 10° SSE 19:40:04 58° ENE 19:45:27 10° N
CZ-4B R/B 3.6 19:35:20 10° SE 19:40:36 49° ENE 19:46:01 10° N
MetOp-B 4.5 19:35:52 10° SE 19:41:00 48° ENE 19:46:09 10° N
CZ-4B DEB 4.2 19:35:47 10° SSE 19:41:11 67° ENE 19:46:38 10° N
CSL-04 Rocket 3.8 19:35:58 10° SSE 19:41:29 85° WSW 19:47:05 10° NNW
Cosmos 2278 Rocket 3.5 19:39:25 10° N 19:44:04 25° NE 19:47:49 14° E
Cosmos 2333 Rocket 3.5 19:42:55 10° SW 19:48:21 45° NW 19:53:48 10° NNE
NOSS 3-2 (C) 4.1 19:41:53 10° NW 19:49:05 72° NE 19:56:23 16° SE
Cosmos 1703 Rocket 3.4 19:50:02 10° N 19:54:23 77° E 19:58:40 10° SSE
Geosat 3.9 19:50:32 10° NNE 19:55:32 70° ESE 20:00:31 10° SSW
BREEZE-M DEB (TANK) 2.3 19:53:32 10° W 19:55:56 59° N 19:59:33 13° E
Cosmos 1470 Rocket 3.8 19:52:36 10° SSW 19:56:59 73° W 20:01:22 10° N
Spot 2 Rocket 4.2 19:53:55 18° ESE 19:57:02 36° ENE 20:01:36 10° N
Lacrosse 5 rocket 0.9 19:55:14 10° SSW 19:58:19 45° SE 20:00:40 15° ENE
Meteor 2-5 Rocket 4.3 19:53:49 10° NNW 19:59:15 59° W 20:04:41 10° S
NOSS 2-3 (D) 4.4 19:54:32 10° NW 19:59:27 61° NE 20:03:53 20° ESE
ARIANE 6 FM1 Upper Stage 3.0 19:55:33 10° SW 19:59:39 66° NW 20:03:41 10° NE
ERS-1 Rocket 2.9 19:57:46 11° SSE 20:02:34 78° ENE 20:07:36 10° NNW
Cosmos 1933 Rocket 3.5 20:00:08 10° S 20:04:25 60° E 20:08:46 10° NNE
Nadezhda 3 Rocket 4.2 19:58:29 10° NNW 20:04:39 71° W 20:10:44 10° S
Cosmos 1943 Rocket 2.8 20:04:37 10° NNW 20:09:59 41° NE 20:12:59 23° ESE
Cosmos 2218 Rocket 4.3 20:06:05 15° SSE 20:10:49 42° E 20:16:32 10° NNE
Helios 1A Rocket 3.2 20:08:40 10° N 20:11:50 51° WNW 20:14:57 10° SSW
Meteor 1-12 Rocket 4.3 20:07:50 10° S 20:13:49 83° E 20:19:53 10° NNE
In-Cosmos 22 Rocket 4.1 20:10:17 10° N 20:15:38 65° ENE 20:19:03 22° SSE
USA 59 Rocket 2.0 20:14:34 10° N 20:15:52 12° NNE 20:17:15 10° NE
MOS 1-B 4.5 20:14:21 22° SE 20:17:57 57° ENE 20:23:36 10° N
Cosmos 1733 Rocket 4.2 20:18:20 25° E 20:18:20 25° E 20:21:54 10° NNE
CZ-4B R/B 4.4 20:20:21 25° E 20:21:51 29° ENE 20:25:58 10° N
SeaSat 1 4.5 20:19:54 12° ENE 20:22:16 16° NE 20:25:09 10° N
Okean-O 2.8 20:20:35 31° SE 20:22:23 53° ENE 20:26:40 10° N
Cosmos 494 Rocket 3.9 20:18:31 10° NNW 20:23:42 76° ENE 20:26:29 28° SSE
ATLAS 3B R/B 4.2 20:16:41 10° WSW 20:24:00 44° NW 20:31:30 10° NE
Cosmos 1821 Rocket 4.5 20:22:24 25° SE 20:25:20 39° E 20:31:07 10° NNE
Cosmos 962 Rocket 4.4 20:20:04 10° S 20:26:20 81° E 20:32:32 10° N
Cosmos 2360 Rocket 3.8 20:22:03 10° WSW 20:27:15 37° NW 20:32:30 10° NNE
Cosmos 1048 Rocket 4.5 20:23:10 10° N 20:28:04 43° ENE 20:29:52 32° ESE
Timation 2 Rocket 4.4 20:27:22 10° NNW 20:33:25 49° NE 20:36:19 30° ESE
Cosmos 1869 Rocket 3.4 20:30:47 15° S 20:34:23 88° E 20:38:49 10° N
Cosmos 2322 Rocket 4.1 20:30:26 10° WSW 20:35:22 31° NW 20:40:20 10° NNE
ADEOS 3.9 20:32:48 16° S 20:36:55 63° WSW 20:42:06 10° NNW
Terra 2.3 20:34:17 16° S 20:37:51 56° W 20:42:29 10° NNW
CZ-4 R/B 3.4 20:36:19 10° SSW 20:39:25 23° W 20:42:30 10° NW
Aureole 3 4.2 20:35:33 10° N 20:39:28 40° ENE 20:40:03 38° E
BREEZE-M DEB (TANK) 4.3 20:38:43 10° WSW 20:42:47 76° SSE 21:00:02 10° ENE
Okean O Rocket 1.5 20:43:57 39° S 20:45:32 86° WSW 20:49:55 10° NNW
Cosmos 2242 Rocket 3.8 20:41:19 10° N 20:45:44 52° ENE 20:46:21 48° ESE
Cosmos 2237 Rocket 2.8 20:47:31 35° E 20:47:31 35° E 20:52:19 10° NE
Cosmos 1980 4.1 20:47:57 38° ESE 20:48:01 38° ESE 20:53:11 10° NE
SL-08 R/B 3.6 20:43:19 10° N 20:48:11 72° WNW 20:53:04 10° SSW
Cosmos 1025 Rocket 4.3 20:46:15 10° NNE 20:49:24 25° ENE 20:49:24 25° ENE
Cosmos 2322 3.7 20:45:22 10° SSW 20:51:05 88° WNW 20:56:51 10° NNE
CZ-4B R/B 3.0 20:51:35 50° NE 20:51:35 50° NE 20:54:45 10° N
ASTEX 1 3.4 20:50:47 48° SE 20:51:48 58° E 20:56:37 10° N
Cosmos 2341 Rocket 4.0 20:46:52 10° S 20:53:06 85° W 20:59:26 10° N
Meteor 1-21 Rocket 4.2 20:52:56 10° NNW 20:58:33 79° W 21:01:08 34° S
Cosmos 1680 Rocket 4.4 20:55:00 10° NW 20:59:54 43° WSW 21:02:36 24° SSW
Cosmos 1400 Rocket 4.4 21:03:02 21° NE 21:03:02 21° NE 21:04:29 10° NNE
USA 186 4.4 21:04:43 13° NW 21:04:43 13° NW 21:05:05 10° NW
SPOT 3 Rocket 3.5 21:02:10 52° SE 21:03:19 69° ENE 21:08:30 10° N
Cosmos 2219 Rocket 4.0 20:58:49 10° WSW 21:03:46 32° NW 21:08:46 10° NNE
Meteor 2-21 Rocket 4.4 21:07:22 10° N 21:13:27 68° ENE 21:14:51 52° SE
USA 245 3.4 21:17:15 75° W 21:17:15 75° W 21:21:42 10° NNW
USA 234 4.3 21:12:24 10° NE 21:18:33 45° NNW 21:24:42 10° W
Cosmos 2369 Rocket 3.8 21:15:21 10° N 21:19:36 21° NE 21:20:57 20° ENE
Cosmos 1674 Rocket 3.9 21:16:18 10° N 21:19:57 54° NE 21:19:57 54° NE
COSMOS 2428 3.1 21:15:17 10° SW 21:20:56 62° WNW 21:26:39 10° NNE
NOSS 0 Rocket 3.9 21:17:36 10° SSW 21:23:51 88° WNW 21:30:09 10° NNE
Cosmos 1727 Rocket 3.9 21:20:33 10° N 21:26:57 88° E 21:28:33 54° S
Ariane Rocket 2.8 21:26:52 78° SSE 21:27:13 87° ENE 21:32:17 10° NNW
Cosmos 2278 Rocket 2.3 21:23:00 10° NNW 21:28:40 69° WSW 21:29:39 57° SSW
USA 238 DEB 3.9 21:22:27 10° NW 21:29:52 86° NE 21:32:16 50° SE
USA 238 3.9 21:22:37 10° NW 21:30:02 85° NE 21:32:26 50° SE
Cosmos 2221 Rocket 4.5 21:26:57 10° N 21:30:11 39° NE 21:30:11 39° NE
Cosmos 1346 Rocket 4.2 21:29:37 10° N 21:31:34 29° N 21:31:34 29° N
Lacrosse 5 rocket 3.0 21:32:14 10° W 21:34:04 23° WNW 21:34:04 23° WNW
Cosmos 1378 Rocket 4.0 21:36:09 10° NNW 21:40:16 56° W 21:40:16 56° W
Meteor 2-8 Rocket 4.3 21:47:10 67° SSW 21:48:04 88° W 21:54:11 10° N
Cosmos 1656 Rocket 3.8 21:45:05 10° NNW 21:50:17 58° NE 21:50:17 58° NE
Cosmos 1943 Rocket 3.2 21:48:30 10° NW 21:53:39 37° WSW 21:54:29 35° SW
Cosmos 614 Rocket 4.1 21:49:07 10° NNW 21:53:59 68° W 21:53:59 68° W
SL-16 R/B 3.8 21:58:05 22° ENE 21:58:05 22° ENE 22:00:18 10° NE
Cosmos 1733 Rocket 4.4 21:55:13 32° W 21:55:49 34° WNW 21:59:50 10° N
SeaSat 1 2.7 21:59:30 62° N 21:59:30 62° N 22:03:46 10° NNW
CZ-4B R/B 4.4 22:00:12 38° WSW 22:00:20 39° W 22:04:51 10° NNW
Cosmos 2123 Rocket 3.8 21:57:13 10° N 22:03:31 88° W 22:03:50 82° S
Cosmos 1934 Rocket 3.9 22:03:44 79° E 22:03:46 79° E 22:10:03 10° N
USA 59 Rocket 1.8 22:01:27 10° NW 22:02:48 24° NW 22:02:48 24° NW
NOSS 3-4 (A) 3.4 22:10:29 60° W 22:11:09 67° NW 22:17:01 10° NE
NOSS 3-4 (C) 3.4 22:11:01 62° W 22:11:39 67° NW 22:17:33 10° NE
Cosmos 2285 Rocket 4.4 22:19:16 51° ENE 22:19:16 51° ENE 22:24:15 10° NNE
NOSS 3-1 (C) 4.4 22:20:13 10° NW 22:26:46 50° NE 22:28:44 42° E
Cosmos 2237 Rocket 3.2 22:29:12 32° W 22:31:09 43° NW 22:36:35 10° NNE
Cosmos 1125 Rocket 4.4 22:31:27 44° WNW 22:31:40 44° WNW 22:36:42 10° NNE
Cosmos 1605 Rocket 4.1 22:32:45 62° NE 22:32:45 62° NE 22:37:54 10° NNE
Cosmos 2297 4.2 22:32:36 10° NNW 22:37:29 54° NNE 22:37:29 54° NNE
COSMOS 2455 4.4 22:38:54 10° NNW 22:43:58 27° NE 22:45:15 25° ENE
USA 234 4.4 22:54:48 10° ENE 23:00:45 39° N 23:06:43 10° WNW
Cosmos 2369 Rocket 2.9 22:58:41 10° NNW 23:02:43 49° NW 23:02:43 49° NW
SJ 16-02 3.7 23:31:39 10° N 23:33:16 20° NNE 23:33:16 20° NNE
SL-16 R/B 3.2 23:39:53 42° NW 23:39:53 42° NW 23:44:38 10° NNE
ACS3 Solar Sail 3.9 23:37:48 10° NE 23:40:25 15° ENE 23:40:25 15° ENE
CZ-2C R/B 3.7 23:44:18 44° NNE 23:44:18 44° NNE 23:48:21 10° N
